Location: Hurstbourne Priors
(51.2000°N, 1.3667°W)
Time: 08:52:10
(UTC+00:00)

STARLINK-1219 - Pass Details

Date: 09 April 2020
Orbit: 548 x 551 km, 53.0° (Epoch: 02 June)

Event Time Altitude Azimuth Distance (km) Brightness Sun altitude
Rises 19:58:46 0° 289° (WNW) 2,719 9.3 -10.5°
Reaches altitude 10° 20:01:09 10° 280° (W) 1,823 7.6 -10.9°
Maximum altitude 20:04:51 32° 217° (SW) 954 4.9 -11.4°
Enters shadow 20:08:11 12° 156° (SSE) 1,690 5.6 -11.8°
